User: anonymous   Login
Location: Pine Mountain Observatory
(43.7910°N, 120.9377°W)
Time: 14:04:46
(UTC-07:00)
Language:

Cosmos 1076 Rocket - Orbit

View from above orbital plane
View from above orbital plane
View from above satellite
View from above satellite

Ground track
Ground track

The orbit data is extracted from the following two-line orbital elements,

1 11267U 79011B   17113.93075619 +.00000196 +00000-0 +18134-4 0  9995
2 11267 082.5228 280.7007 0018157 053.5370 306.7518 14.88832792046197
Epoch (UTC): 23 April 2017 22:20:17
Eccentricity: 0.0018157
inclination: 82.5228°
perigee height: 589 km
apogee height: 614 km
right ascension of ascending node: 280.7007°
argument of perigee: 53.5370°
revolutions per day: 14.88832792
mean anomaly at epoch: 306.7518°
orbit number at epoch: 4619

The dashed part of the orbit path shows where the satellite is in the earth's shadow,  

DLR